Location: Newark
(36.1358°N, 115.1208°W)
Time: 04:18:58
(UTC+00:00)

ISS - Visible Passes

Search period start: 19 January 2020 00:00
Search period end: 29 January 2020 00:00
Orbit: 415 x 421 km, 51.6° (Epoch: 19 January)

Date Brightness Start Highest point End Pass type
(mag) Time Alt. Az. Time Alt. Az. Time Alt. Az.
19 Jan -3.0 02:40:20 10° SW 02:42:50 46° SSW 02:42:50 46° SSW visible
20 Jan -3.0 01:52:38 10° SSW 01:55:44 36° SE 01:57:14 23° E visible
20 Jan -0.3 03:29:50 10° W 03:30:11 12° W 03:30:11 12° W visible
21 Jan -2.5 02:41:19 10° WSW 02:44:27 35° NW 02:44:30 35° NNW visible
22 Jan -3.5 01:53:02 10° WSW 01:56:23 63° NW 01:58:44 18° NE visible
23 Jan -1.4 02:43:14 10° WNW 02:45:25 16° NNW 02:45:49 16° NNW visible
24 Jan -1.8 01:54:25 10° W 01:57:12 23° NNW 01:59:53 10° NNE visible
26 Jan -1.1 01:56:50 10° NW 01:58:13 12° NNW 01:59:36 10° N visible
